Home > Weather > Cleveland > Past weeks

Flag for U.S.A. Weather for the Past 2 Weeks in Cleveland, Tennessee, U.S.A.

Now
35 °F

Partly sunny.


Feels Like: 35 °F
Forecast: 29 / 47 °F
Wind: No wind

Location: Lovell Field

Current Time: Feb 12, 2016 at 9:55:24 AM

Latest Report: Feb 12, 2016 at 8:53 AM


Visibility: 10 mi

Pressure: 30.17 "Hg

Humidity: 64%

Dew point: 24 °F

Location of ClevelandLocation

Historic Weather in Cleveland — Graph

°F

Cleveland Temperature Yesterday

Maximum temperature yesterday: 47 °F (at 4:53 PM)
Minimum temperature yesterday: 28 °F (at 5:53 AM)
Average temperature yesterday: 36 °F

High & Low Weather Summary for the Past Weeks

 TemperatureHumidityPressure
High75 °F (Feb 2, 2:53 PM)96% (Feb 2, 9:53 AM)30.48 "Hg (Feb 2, 9:53 AM)
Low22 °F (Feb 10, 5:53 AM)22% (Feb 7, 4:53 PM)29.75 "Hg (Feb 8, 1:53 PM)
Average44 °F59%30.06 "Hg
* Reported Jan 28 8:53 AM — Feb 12 8:53 AM, Cleveland, Weather by CustomWeather, © 2016

Note: Actual official high and low records may vary slightly from our data, if they occured in-between our weather recording intervals... More about our weather records

Advertising

Cleveland Weather History for the Previous 24 Hours

 ConditionsComfort  
Time TempWeatherWind HumidityBarometerVisibility
8:53 AM
Fri, Feb 12
35 °FPartly sunny.No wind64%30.17 "Hg10 mi
7:53 AM35 °FCloudy.7 mph64%30.18 "Hg10 mi
6:53 AM35 °FPassing clouds.No wind61%30.19 "Hg7 mi
5:53 AM35 °FPassing clouds.No wind56%30.18 "Hg7 mi
4:53 AM35 °FPassing clouds.3 mph59%30.18 "Hg10 mi
3:53 AM35 °FPassing clouds.5 mph56%30.19 "Hg10 mi
2:53 AM35 °FPassing clouds.8 mph59%30.19 "Hg10 mi
1:53 AM35 °FPassing clouds.9 mph59%30.19 "Hg10 mi
12:53 AM35 °FClear.6 mph61%30.21 "Hg10 mi
11:53 PM
Thu, Feb 11
35 °FPassing clouds.6 mph64%30.24 "Hg10 mi
10:53 PM33 °FPassing clouds.6 mph75%30.24 "Hg10 mi
9:53 PM33 °FPassing clouds.3 mph72%30.24 "Hg10 mi
8:53 PM35 °FPassing clouds.No wind64%30.25 "Hg10 mi
7:53 PM40 °FPassing clouds.6 mph49%30.23 "Hg10 mi
6:53 PM43 °FPassing clouds.6 mph43%30.22 "Hg10 mi
5:53 PM45 °FPassing clouds.5 mph38%30.21 "Hg10 mi
4:53 PM47 °FPassing clouds.5 mph36%30.19 "Hg10 mi
3:53 PM46 °FSunny.5 mph37%30.18 "Hg10 mi
2:53 PM46 °FSunny.7 mph35%30.18 "Hg10 mi
1:53 PM46 °FPassing clouds.9 mph37%30.19 "Hg10 mi
12:53 PM44 °FScattered clouds.9 mph40%30.20 "Hg10 mi
11:53 AM41 °FScattered clouds.7 mph41%30.23 "Hg10 mi
10:53 AM37 °FScattered clouds.6 mph48%30.26 "Hg10 mi
9:53 AM34 °FScattered clouds.6 mph54%30.26 "Hg10 mi
Weather by CustomWeather, © 2016

See weather overviewHow to use our weather pages